DLH1278 EDDF-LGAV

Flight info

Callsign DLH1278
Flight time 2h 17m
Altitude 33000
Route CINDY8S/18 CINDY Z74 LAMPU DCT NOMBO Y161 MAH L173 OTT M867 RADIZ DCT NEMEK DCT GLOMY DCT INLOT DCT PINDO UL607 XORKI
Aircraft A21N/M-SDE2E3FGHIRWXY/LB1

Departure

Time 2026-05-03 22:48
Airport Frankfurt Main Airport (EDDF)

Arrival

Time 2026-05-04 01:05
Airport Athens Eleftherios Venizelos International Airport (LGAV)
Time Latitude Longitude Altitude Speed Heading
2026-05-03 21:40 50.04785 8.56771 361 ft 0 kts 114°
2026-05-03 22:32 50.04786 8.56770 361 ft 2 kts 114°
2026-05-03 22:32 50.04791 8.56735 361 ft 4 kts 91°
2026-05-03 22:32 50.04795 8.56704 366 ft 4 kts 120°
2026-05-03 22:33 50.04812 8.56690 361 ft 4 kts 172°
2026-05-03 22:33 50.04805 8.56689 361 ft 4 kts 190°
2026-05-03 22:33 50.04786 8.56676 365 ft 1 kts 202°
2026-05-03 22:38 50.04785 8.56675 361 ft 1 kts 202°
2026-05-03 22:38 50.04768 8.56663 367 ft 4 kts 211°
2026-05-03 22:38 50.04742 8.56627 366 ft 6 kts 229°
2026-05-03 22:39 50.04714 8.56574 364 ft 7 kts 230°
2026-05-03 22:39 50.04685 8.56507 367 ft 8 kts 247°
2026-05-03 22:39 50.04661 8.56417 363 ft 10 kts 250°
2026-05-03 22:39 50.04637 8.56312 361 ft 11 kts 250°
2026-05-03 22:40 50.04609 8.56194 366 ft 12 kts 250°
2026-05-03 22:40 50.04581 8.56074 361 ft 12 kts 250°
2026-05-03 22:40 50.04539 8.55961 368 ft 13 kts 208°
2026-05-03 22:40 50.04462 8.55922 362 ft 11 kts 194°
2026-05-03 22:41 50.04381 8.55908 362 ft 12 kts 167°
2026-05-03 22:41 50.04332 8.55935 362 ft 4 kts 160°
2026-05-03 22:41 50.04300 8.55953 360 ft 5 kts 160°
2026-05-03 22:41 50.04262 8.55961 359 ft 6 kts 194°
2026-05-03 22:42 50.04232 8.55907 361 ft 7 kts 246°
2026-05-03 22:42 50.04212 8.55829 358 ft 8 kts 249°
2026-05-03 22:42 50.04189 8.55731 366 ft 11 kts 250°
2026-05-03 22:42 50.04163 8.55616 361 ft 12 kts 250°
2026-05-03 22:43 50.04133 8.55490 359 ft 13 kts 250°
2026-05-03 22:43 50.04099 8.55351 359 ft 14 kts 249°
2026-05-03 22:43 50.04061 8.55200 359 ft 16 kts 249°
2026-05-03 22:43 50.04021 8.55038 364 ft 17 kts 249°
2026-05-03 22:44 50.03980 8.54866 363 ft 17 kts 250°
2026-05-03 22:44 50.03938 8.54686 359 ft 18 kts 250°
2026-05-03 22:44 50.03895 8.54498 353 ft 19 kts 250°
2026-05-03 22:44 50.03839 8.54325 358 ft 18 kts 234°
2026-05-03 22:45 50.03781 8.54144 355 ft 19 kts 251°
2026-05-03 22:45 50.03734 8.53946 355 ft 20 kts 249°
2026-05-03 22:45 50.03685 8.53742 350 ft 21 kts 249°
2026-05-03 22:45 50.03633 8.53531 353 ft 21 kts 249°
2026-05-03 22:46 50.03580 8.53314 348 ft 22 kts 249°
2026-05-03 22:46 50.03526 8.53089 350 ft 22 kts 249°
2026-05-03 22:46 50.03476 8.52886 347 ft 16 kts 248°
2026-05-03 22:46 50.03432 8.52725 337 ft 14 kts 247°
2026-05-03 22:47 50.03392 8.52604 338 ft 13 kts 214°
2026-05-03 22:47 50.03287 8.52585 336 ft 25 kts 180°
2026-05-03 22:47 50.02867 8.52597 338 ft 96 kts 180°
2026-05-03 22:47 50.01973 8.52607 340 ft 159 kts 179°
2026-05-03 22:48 50.00796 8.52648 796 ft 167 kts 178°
2026-05-03 22:48 49.99625 8.52709 1408 ft 171 kts 179°
2026-05-03 22:48 49.98429 8.52804 2016 ft 174 kts 181°
2026-05-03 22:48 49.97206 8.52942 2560 ft 181 kts 172°
2026-05-03 22:49 49.96095 8.54006 2954 ft 205 kts 132°
2026-05-03 22:49 49.95449 8.56069 3427 ft 219 kts 115°
2026-05-03 22:49 49.94727 8.58177 3988 ft 224 kts 126°
2026-05-03 22:49 49.93879 8.60251 4566 ft 234 kts 120°
2026-05-03 22:50 49.93517 8.62825 4890 ft 260 kts 89°
2026-05-03 22:50 49.93604 8.65691 5424 ft 272 kts 91°
2026-05-03 22:50 49.93481 8.68671 5964 ft 280 kts 109°
2026-05-03 22:50 49.92555 8.71266 6518 ft 274 kts 142°
2026-05-03 22:51 49.91042 8.72963 7330 ft 265 kts 153°
2026-05-03 22:51 49.89482 8.74487 8159 ft 265 kts 154°
2026-05-03 22:51 49.88011 8.76205 8817 ft 279 kts 137°
2026-05-03 22:51 49.87005 8.78955 9395 ft 295 kts 119°
2026-05-03 22:52 49.86133 8.81750 10216 ft 291 kts 123°
2026-05-03 22:52 49.85167 8.84575 10655 ft 303 kts 123°
2026-05-03 22:52 49.84118 8.87505 11033 ft 318 kts 124°
2026-05-03 22:52 49.82996 8.90566 11315 ft 335 kts 124°
2026-05-03 22:53 49.81815 8.93782 11568 ft 352 kts 123°
2026-05-03 22:53 49.80578 8.97156 11814 ft 369 kts 123°
2026-05-03 22:53 49.79286 9.00693 12083 ft 384 kts 123°
2026-05-03 22:53 49.77958 9.04337 12607 ft 391 kts 122°
2026-05-03 22:54 49.76642 9.08038 13195 ft 397 kts 120°
2026-05-03 22:54 49.75697 9.12087 13786 ft 405 kts 108°
2026-05-03 22:54 49.74963 9.16311 14308 ft 407 kts 111°
2026-05-03 22:54 49.73754 9.20235 14825 ft 404 kts 127°
2026-05-03 22:55 49.72015 9.23629 15376 ft 403 kts 134°
2026-05-03 22:55 49.70154 9.26879 15928 ft 406 kts 135°
2026-05-03 22:55 49.68292 9.30108 16496 ft 409 kts 135°
2026-05-03 22:55 49.66403 9.33404 17025 ft 412 kts 134°
2026-05-03 22:56 49.64500 9.36743 17565 ft 415 kts 134°
2026-05-03 22:56 49.62561 9.40045 18088 ft 417 kts 138°
2026-05-03 22:56 49.60317 9.42871 18568 ft 416 kts 149°
2026-05-03 22:56 49.57845 9.45208 18999 ft 418 kts 152°
2026-05-03 22:57 49.55332 9.47463 19439 ft 420 kts 153°
2026-05-03 22:57 49.52799 9.49736 19882 ft 423 kts 152°
2026-05-03 22:57 49.50252 9.52042 20327 ft 425 kts 152°
2026-05-03 22:57 49.47697 9.54371 20752 ft 427 kts 152°
2026-05-03 22:58 49.45135 9.56706 21153 ft 430 kts 152°
2026-05-03 22:58 49.42559 9.59050 21540 ft 432 kts 152°
2026-05-03 22:58 49.39968 9.61402 21922 ft 434 kts 152°
2026-05-03 22:58 49.37369 9.63761 22296 ft 435 kts 152°
2026-05-03 22:59 49.34777 9.66211 22657 ft 440 kts 148°
2026-05-03 22:59 49.32393 9.69205 22958 ft 445 kts 140°
2026-05-03 22:59 49.30177 9.72545 23250 ft 449 kts 138°
2026-05-03 22:59 49.27970 9.75965 23563 ft 451 kts 138°
2026-05-03 23:00 49.25753 9.79392 23918 ft 454 kts 138°
2026-05-03 23:00 49.23519 9.82822 24309 ft 456 kts 138°
2026-05-03 23:00 49.21265 9.86253 24711 ft 459 kts 139°
2026-05-03 23:00 49.18995 9.89696 25113 ft 460 kts 139°
2026-05-03 23:01 49.16718 9.93149 25483 ft 462 kts 139°
2026-05-03 23:01 49.14436 9.96610 25817 ft 464 kts 139°
2026-05-03 23:01 49.12139 10.00089 26152 ft 465 kts 139°
2026-05-03 23:01 49.09869 10.03522 26586 ft 465 kts 139°
2026-05-03 23:02 49.07581 10.06979 27025 ft 463 kts 139°
2026-05-03 23:02 49.05261 10.10375 27447 ft 461 kts 140°
2026-05-03 23:02 49.02912 10.13706 27886 ft 460 kts 141°
2026-05-03 23:02 49.00565 10.17017 28327 ft 459 kts 141°
2026-05-03 23:03 48.98227 10.20317 28737 ft 458 kts 141°
2026-05-03 23:03 48.95897 10.23609 29153 ft 457 kts 141°
2026-05-03 23:03 48.93567 10.26894 29548 ft 456 kts 141°
2026-05-03 23:03 48.91244 10.30171 29942 ft 455 kts 141°
2026-05-03 23:04 48.88926 10.33437 30303 ft 454 kts 141°
2026-05-03 23:04 48.86617 10.36689 30611 ft 452 kts 141°
2026-05-03 23:04 48.85084 10.38846 30816 ft 452 kts 141°
2026-05-03 23:04 48.82803 10.42113 31112 ft 452 kts 138°
2026-05-03 23:05 48.80627 10.45553 31388 ft 452 kts 137°
2026-05-03 23:05 48.78464 10.49026 31688 ft 451 kts 137°
2026-05-03 23:05 48.76316 10.52473 31925 ft 450 kts 136°
2026-05-03 23:05 48.74163 10.55919 32217 ft 448 kts 136°
2026-05-03 23:06 48.72021 10.59341 32489 ft 448 kts 136°
2026-05-03 23:06 48.69882 10.62752 32751 ft 447 kts 137°
2026-05-03 23:06 48.67739 10.66157 32987 ft 446 kts 137°
2026-05-03 23:06 48.65603 10.69553 33091 ft 446 kts 137°
2026-05-03 23:07 48.63508 10.73011 33070 ft 447 kts 131°
2026-05-03 23:07 48.60163 10.81001 33040 ft 451 kts 124°
2026-05-03 23:08 48.56907 10.89101 33030 ft 451 kts 125°
2026-05-03 23:08 48.53573 10.97184 33018 ft 455 kts 125°
2026-05-03 23:09 48.50245 11.05211 33049 ft 454 kts 125°
2026-05-03 23:09 48.46873 11.13311 33053 ft 454 kts 125°
2026-05-03 23:10 48.43513 11.21365 33042 ft 454 kts 125°
2026-05-03 23:10 48.40166 11.29369 33017 ft 458 kts 125°
2026-05-03 23:11 48.36761 11.37471 33024 ft 457 kts 126°
2026-05-03 23:11 48.33366 11.45540 33021 ft 457 kts 125°
2026-05-03 23:12 48.29958 11.53600 33027 ft 457 kts 125°
2026-05-03 23:12 48.26542 11.61675 33025 ft 457 kts 125°
2026-05-03 23:13 48.23124 11.69715 33023 ft 457 kts 125°
2026-05-03 23:13 48.19699 11.77767 33022 ft 457 kts 125°
2026-05-03 23:14 48.15677 11.85033 33030 ft 452 kts 139°
2026-05-03 23:14 48.11030 11.91358 33026 ft 452 kts 140°
2026-05-03 23:15 48.06408 11.97662 33024 ft 452 kts 140°
2026-05-03 23:15 48.01765 12.04042 32999 ft 455 kts 140°
2026-05-03 23:16 47.97102 12.10428 33019 ft 455 kts 140°
2026-05-03 23:16 47.92402 12.16741 33010 ft 454 kts 142°
2026-05-03 23:17 47.87576 12.22823 33017 ft 454 kts 142°
2026-05-03 23:17 47.82744 12.28882 33012 ft 454 kts 142°
2026-05-03 23:18 47.77914 12.34927 33020 ft 454 kts 142°
2026-05-03 23:18 47.73077 12.40976 33015 ft 453 kts 142°
2026-05-03 23:19 47.68226 12.46981 33023 ft 454 kts 142°
2026-05-03 23:19 47.63403 12.52900 33031 ft 455 kts 142°
2026-05-03 23:20 47.58774 12.59314 33036 ft 456 kts 139°
2026-05-03 23:20 47.54190 12.65818 33023 ft 458 kts 138°
2026-05-03 23:21 47.49579 12.72332 33031 ft 459 kts 138°
2026-05-03 23:21 47.44959 12.78837 33036 ft 459 kts 139°
2026-05-03 23:22 47.38025 12.88569 33048 ft 458 kts 139°
2026-05-03 23:22 47.33395 12.95050 33055 ft 459 kts 139°
2026-05-03 23:23 47.28747 13.01548 33060 ft 461 kts 138°
2026-05-03 23:23 47.24124 13.07986 33066 ft 462 kts 138°
2026-05-03 23:24 47.19447 13.14469 33080 ft 461 kts 139°
2026-05-03 23:24 47.14777 13.20933 33088 ft 461 kts 139°
2026-05-03 23:25 47.10107 13.27379 33093 ft 461 kts 139°
2026-05-03 23:25 47.05428 13.33834 33096 ft 462 kts 138°
2026-05-03 23:26 47.00741 13.40283 33098 ft 462 kts 138°
2026-05-03 23:26 46.96051 13.46710 33106 ft 462 kts 138°
2026-05-03 23:27 46.91360 13.53127 33112 ft 462 kts 138°
2026-05-03 23:27 46.86692 13.59495 33114 ft 461 kts 138°
2026-05-03 23:28 46.81993 13.65885 33107 ft 461 kts 138°
2026-05-03 23:28 46.77262 13.72311 33110 ft 462 kts 138°
2026-05-03 23:29 46.72574 13.78662 33102 ft 464 kts 138°
2026-05-03 23:29 46.67844 13.85047 33113 ft 464 kts 139°
2026-05-03 23:30 46.63116 13.91427 33112 ft 464 kts 138°
2026-05-03 23:30 46.58380 13.97781 33115 ft 462 kts 137°
2026-05-03 23:31 46.53654 14.04118 33110 ft 462 kts 138°
2026-05-03 23:31 46.48914 14.10464 33107 ft 466 kts 138°
2026-05-03 23:32 46.44140 14.16832 33125 ft 466 kts 138°
2026-05-03 23:32 46.39366 14.23186 33143 ft 466 kts 138°
2026-05-03 23:33 46.34624 14.29484 33148 ft 465 kts 138°
2026-05-03 23:33 46.29852 14.35808 33140 ft 465 kts 138°
2026-05-03 23:34 46.25069 14.42126 33134 ft 466 kts 138°
2026-05-03 23:34 46.20249 14.48470 33137 ft 468 kts 138°
2026-05-03 23:35 46.15445 14.54780 33146 ft 467 kts 138°
2026-05-03 23:35 46.10633 14.61095 33142 ft 467 kts 138°
2026-05-03 23:36 46.05821 14.67388 33137 ft 467 kts 138°
2026-05-03 23:36 46.01036 14.73631 33123 ft 467 kts 138°
2026-05-03 23:37 45.96198 14.79924 33127 ft 469 kts 137°
2026-05-03 23:37 45.91360 14.86209 33117 ft 469 kts 137°
2026-05-03 23:38 45.86513 14.92486 33117 ft 469 kts 138°
2026-05-03 23:38 45.81666 14.98747 33114 ft 469 kts 138°
2026-05-03 23:39 45.76811 15.05000 33116 ft 469 kts 138°
2026-05-03 23:39 45.71938 15.11270 33112 ft 473 kts 137°
2026-05-03 23:40 45.67037 15.17555 33112 ft 473 kts 137°
2026-05-03 23:40 45.62128 15.23833 33115 ft 473 kts 137°
2026-05-03 23:41 45.57220 15.30103 33103 ft 473 kts 137°
2026-05-03 23:41 45.52243 15.36244 33103 ft 473 kts 139°
2026-05-03 23:42 45.47265 15.42314 33107 ft 473 kts 139°
2026-05-03 23:42 45.42267 15.48422 33109 ft 473 kts 139°
2026-05-03 23:43 45.37267 15.54525 33106 ft 473 kts 139°
2026-05-03 23:43 45.32259 15.60620 33111 ft 474 kts 139°
2026-05-03 23:44 45.27241 15.66715 33106 ft 476 kts 139°
2026-05-03 23:44 45.22202 15.72821 33112 ft 476 kts 139°
2026-05-03 23:45 45.17156 15.78924 33114 ft 476 kts 139°
2026-05-03 23:45 45.12112 15.85004 33116 ft 476 kts 139°
2026-05-03 23:46 45.07060 15.91079 33129 ft 477 kts 139°
2026-05-03 23:46 45.01986 15.97171 33125 ft 479 kts 139°
2026-05-03 23:47 44.96896 16.03260 33126 ft 479 kts 139°
2026-05-03 23:47 44.91845 16.09294 33131 ft 479 kts 139°
2026-05-03 23:48 44.86749 16.15364 33132 ft 479 kts 139°
2026-05-03 23:48 44.81647 16.21423 33138 ft 480 kts 139°
2026-05-03 23:49 44.76530 16.27486 33127 ft 481 kts 139°
2026-05-03 23:49 44.71412 16.33547 33146 ft 481 kts 139°
2026-05-03 23:50 44.67152 16.38575 33147 ft 481 kts 139°
2026-05-03 23:50 44.61148 16.45641 33165 ft 482 kts 139°
2026-05-03 23:51 44.55995 16.51695 33148 ft 483 kts 139°
2026-05-03 23:51 44.50861 16.57705 33159 ft 483 kts 139°
2026-05-03 23:52 44.45691 16.63735 33172 ft 484 kts 139°
2026-05-03 23:52 44.40510 16.69757 33187 ft 484 kts 139°
2026-05-03 23:53 44.35335 16.75779 33172 ft 483 kts 138°
2026-05-03 23:53 44.31032 16.80776 33170 ft 484 kts 139°
2026-05-03 23:54 44.25846 16.86784 33181 ft 485 kts 139°
2026-05-03 23:54 44.20649 16.92786 33189 ft 485 kts 139°
2026-05-03 23:55 44.15451 16.98777 33197 ft 484 kts 139°
2026-05-03 23:55 44.10262 17.04740 33190 ft 484 kts 139°
2026-05-03 23:56 44.05056 17.10708 33187 ft 485 kts 139°
2026-05-03 23:56 43.99832 17.16685 33194 ft 485 kts 139°
2026-05-03 23:57 43.94664 17.22607 33204 ft 485 kts 138°
2026-05-03 23:57 43.89448 17.28561 33189 ft 485 kts 138°
2026-05-03 23:58 43.84227 17.34495 33185 ft 486 kts 139°
2026-05-03 23:58 43.78999 17.40429 33177 ft 486 kts 139°
2026-05-03 23:59 43.73761 17.46354 33190 ft 487 kts 138°
2026-05-03 23:59 43.68511 17.52276 33173 ft 487 kts 138°
2026-05-04 00:00 43.63251 17.58193 33163 ft 488 kts 138°
2026-05-04 00:00 43.57984 17.64109 33160 ft 489 kts 138°
2026-05-04 00:01 43.52773 17.70110 33149 ft 487 kts 137°
2026-05-04 00:01 43.47600 17.76163 33185 ft 489 kts 136°
2026-05-04 00:02 43.42415 17.82215 33143 ft 489 kts 137°
2026-05-04 00:02 43.37220 17.88252 33144 ft 489 kts 137°
2026-05-04 00:03 43.32026 17.94292 33139 ft 489 kts 137°
2026-05-04 00:03 43.26862 18.00271 33145 ft 489 kts 137°
2026-05-04 00:04 43.21666 18.06279 33157 ft 489 kts 137°
2026-05-04 00:04 43.16455 18.12284 33163 ft 489 kts 137°
2026-05-04 00:05 43.11243 18.18283 33189 ft 490 kts 137°
2026-05-04 00:05 43.06023 18.24278 33195 ft 490 kts 137°
2026-05-04 00:06 43.00793 18.30257 33199 ft 490 kts 137°
2026-05-04 00:06 42.95563 18.36235 33188 ft 490 kts 137°
2026-05-04 00:07 42.90334 18.42193 33184 ft 490 kts 137°
2026-05-04 00:07 42.85064 18.48168 33196 ft 494 kts 137°
2026-05-04 00:08 42.79783 18.54153 33193 ft 494 kts 137°
2026-05-04 00:08 42.74507 18.60132 33191 ft 494 kts 137°
2026-05-04 00:09 42.69222 18.66101 33187 ft 494 kts 137°
2026-05-04 00:09 42.63965 18.72020 33158 ft 494 kts 137°
2026-05-04 00:10 42.58676 18.77987 33219 ft 494 kts 137°
2026-05-04 00:10 42.53373 18.83940 33182 ft 494 kts 137°
2026-05-04 00:11 42.48077 18.89864 33158 ft 494 kts 137°
2026-05-04 00:11 42.42770 18.95791 33164 ft 494 kts 137°
2026-05-04 00:12 42.37464 19.01704 33170 ft 495 kts 137°
2026-05-04 00:12 42.32151 19.07604 33182 ft 495 kts 137°
2026-05-04 00:13 42.26833 19.13508 33201 ft 494 kts 137°
2026-05-04 00:13 42.21528 19.19368 33171 ft 493 kts 137°
2026-05-04 00:14 42.16219 19.25242 33154 ft 495 kts 137°
2026-05-04 00:14 42.10887 19.31118 33149 ft 495 kts 137°
2026-05-04 00:15 42.05554 19.36967 33140 ft 494 kts 137°
2026-05-04 00:15 42.00223 19.42819 33150 ft 495 kts 137°
2026-05-04 00:16 41.94812 19.48553 33167 ft 494 kts 139°
2026-05-04 00:16 41.89347 19.54184 33149 ft 496 kts 139°
2026-05-04 00:17 41.83863 19.59812 33140 ft 496 kts 139°
2026-05-04 00:17 41.78414 19.65398 33137 ft 496 kts 139°
2026-05-04 00:18 41.72910 19.71030 33129 ft 498 kts 139°
2026-05-04 00:18 41.67393 19.76663 33135 ft 499 kts 139°
2026-05-04 00:19 41.61868 19.82304 33171 ft 500 kts 139°
2026-05-04 00:19 41.56332 19.87934 33155 ft 500 kts 139°
2026-05-04 00:20 41.50801 19.93545 33168 ft 500 kts 139°
2026-05-04 00:20 41.45257 19.99152 33149 ft 500 kts 139°
2026-05-04 00:21 41.39698 20.04764 33146 ft 502 kts 139°
2026-05-04 00:21 41.34168 20.10341 33165 ft 502 kts 139°
2026-05-04 00:22 41.28569 20.15971 33198 ft 502 kts 139°
2026-05-04 00:22 41.23029 20.21530 33172 ft 502 kts 139°
2026-05-04 00:23 41.17451 20.27102 33155 ft 503 kts 139°
2026-05-04 00:23 41.11855 20.32695 33175 ft 503 kts 139°
2026-05-04 00:24 41.06259 20.38280 33173 ft 503 kts 140°
2026-05-04 00:24 41.00653 20.43853 33177 ft 504 kts 140°
2026-05-04 00:25 40.95050 20.49415 33210 ft 503 kts 139°
2026-05-04 00:25 40.89448 20.54962 33187 ft 502 kts 139°
2026-05-04 00:26 40.83849 20.60489 33184 ft 502 kts 140°
2026-05-04 00:26 40.78240 20.66008 33197 ft 503 kts 139°
2026-05-04 00:27 40.72635 20.71522 33190 ft 503 kts 140°
2026-05-04 00:27 40.67012 20.77032 33193 ft 504 kts 140°
2026-05-04 00:28 40.61431 20.82509 33238 ft 503 kts 139°
2026-05-04 00:28 40.55803 20.88026 33185 ft 506 kts 139°
2026-05-04 00:29 40.50150 20.93542 33206 ft 506 kts 140°
2026-05-04 00:29 40.44735 20.99405 33209 ft 504 kts 134°
2026-05-04 00:30 40.39476 21.05487 33214 ft 505 kts 135°
2026-05-04 00:30 40.34177 21.11561 33209 ft 505 kts 135°
2026-05-04 00:31 40.28906 21.17640 33212 ft 505 kts 134°
2026-05-04 00:31 40.23626 21.23703 33198 ft 505 kts 134°
2026-05-04 00:32 40.18371 21.29721 33171 ft 506 kts 135°
2026-05-04 00:32 40.13056 21.35786 33184 ft 507 kts 135°
2026-05-04 00:33 40.05077 21.44869 33185 ft 507 kts 135°
2026-05-04 00:34 39.99749 21.50910 33183 ft 507 kts 135°
2026-05-04 00:34 39.94422 21.56949 33186 ft 507 kts 135°
2026-05-04 00:35 39.89082 21.62987 33186 ft 509 kts 135°
2026-05-04 00:35 39.83739 21.69020 33183 ft 509 kts 135°
2026-05-04 00:36 39.78381 21.75042 33185 ft 508 kts 135°
2026-05-04 00:36 39.73029 21.81052 33223 ft 509 kts 135°
2026-05-04 00:37 39.67664 21.87060 33191 ft 510 kts 135°
2026-05-04 00:37 39.62282 21.93074 33175 ft 511 kts 135°
2026-05-04 00:38 39.56930 21.99055 33190 ft 511 kts 135°
2026-05-04 00:38 39.51536 22.05057 33194 ft 511 kts 135°
2026-05-04 00:39 39.46145 22.11048 33191 ft 511 kts 135°
2026-05-04 00:39 39.40740 22.17043 33210 ft 513 kts 135°
2026-05-04 00:40 39.35311 22.23048 33194 ft 514 kts 135°
2026-05-04 00:40 39.29878 22.29041 33192 ft 513 kts 135°
2026-05-04 00:41 39.24450 22.35024 33205 ft 513 kts 135°
2026-05-04 00:41 39.19008 22.40996 33191 ft 514 kts 135°
2026-05-04 00:42 39.14488 22.45957 33249 ft 514 kts 135°
2026-05-04 00:42 39.09034 22.51933 33193 ft 515 kts 136°
2026-05-04 00:43 39.03567 22.57906 33191 ft 516 kts 136°
2026-05-04 00:43 38.98100 22.63872 33192 ft 516 kts 136°
2026-05-04 00:44 38.92611 22.69830 33191 ft 516 kts 136°
2026-05-04 00:44 38.87129 22.75774 33189 ft 515 kts 136°
2026-05-04 00:45 38.81667 22.81703 32915 ft 515 kts 136°
2026-05-04 00:45 38.78921 22.84683 32607 ft 517 kts 136°
2026-05-04 00:45 38.76201 22.87627 32097 ft 517 kts 136°
2026-05-04 00:45 38.73454 22.90595 31280 ft 517 kts 136°
2026-05-04 00:46 38.70698 22.93564 30444 ft 518 kts 136°
2026-05-04 00:46 38.67935 22.96541 29430 ft 520 kts 136°
2026-05-04 00:46 38.65155 22.99528 28408 ft 522 kts 136°
2026-05-04 00:46 38.62376 23.02518 27464 ft 523 kts 136°
2026-05-04 00:47 38.59589 23.05515 26591 ft 522 kts 137°
2026-05-04 00:47 38.56815 23.08492 25783 ft 519 kts 137°
2026-05-04 00:47 38.54062 23.11446 25057 ft 514 kts 137°
2026-05-04 00:47 38.51344 23.14351 24366 ft 505 kts 138°
2026-05-04 00:48 38.48669 23.17209 23660 ft 497 kts 138°
2026-05-04 00:48 38.46036 23.20020 22817 ft 490 kts 138°
2026-05-04 00:48 38.43439 23.22794 22017 ft 483 kts 138°
2026-05-04 00:48 38.40881 23.25522 21205 ft 476 kts 138°
2026-05-04 00:49 38.38363 23.28203 20514 ft 468 kts 138°
2026-05-04 00:49 38.35883 23.30837 19798 ft 460 kts 138°
2026-05-04 00:49 38.33442 23.33430 19103 ft 453 kts 138°
2026-05-04 00:49 38.31042 23.35983 18453 ft 446 kts 138°
2026-05-04 00:50 38.28686 23.38491 17752 ft 438 kts 138°
2026-05-04 00:50 38.26364 23.40956 17085 ft 431 kts 138°
2026-05-04 00:50 38.24078 23.43377 16486 ft 424 kts 139°
2026-05-04 00:50 38.21824 23.45761 15871 ft 418 kts 139°
2026-05-04 00:51 38.19570 23.48063 15272 ft 415 kts 143°
2026-05-04 00:51 38.17005 23.49741 14691 ft 416 kts 161°
2026-05-04 00:51 38.14174 23.50391 14118 ft 414 kts 180°
2026-05-04 00:51 38.11323 23.50029 13542 ft 411 kts 192°
2026-05-04 00:52 38.08518 23.49338 12963 ft 409 kts 193°
2026-05-04 00:52 38.05722 23.48663 12390 ft 409 kts 192°
2026-05-04 00:52 38.02936 23.48037 11796 ft 404 kts 191°
2026-05-04 00:52 38.00211 23.47461 11357 ft 388 kts 191°
2026-05-04 00:53 37.97616 23.46925 10968 ft 368 kts 191°
2026-05-04 00:53 37.95145 23.46422 10592 ft 351 kts 190°
2026-05-04 00:53 37.92809 23.45949 10174 ft 337 kts 190°
2026-05-04 00:53 37.90557 23.45492 9915 ft 318 kts 190°
2026-05-04 00:54 37.88433 23.45060 9751 ft 302 kts 190°
2026-05-04 00:54 37.86373 23.44640 9466 ft 299 kts 190°
2026-05-04 00:54 37.84325 23.44221 9120 ft 298 kts 191°
2026-05-04 00:54 37.82279 23.43801 8753 ft 297 kts 191°
2026-05-04 00:55 37.80236 23.43402 8392 ft 297 kts 187°
2026-05-04 00:55 37.78187 23.43606 8019 ft 296 kts 160°
2026-05-04 00:55 37.76462 23.44930 7694 ft 288 kts 130°
2026-05-04 00:55 37.75437 23.47029 7375 ft 278 kts 105°
2026-05-04 00:56 37.74919 23.49360 7049 ft 274 kts 99°
2026-05-04 00:56 37.74459 23.51705 6706 ft 275 kts 99°
2026-05-04 00:56 37.73984 23.54045 6357 ft 275 kts 100°
2026-05-04 00:56 37.73489 23.56374 5994 ft 275 kts 101°
2026-05-04 00:57 37.72981 23.58701 5637 ft 275 kts 101°
2026-05-04 00:57 37.72465 23.61024 5291 ft 275 kts 101°
2026-05-04 00:57 37.71946 23.63343 4971 ft 274 kts 101°
2026-05-04 00:57 37.71426 23.65656 4609 ft 273 kts 102°
2026-05-04 00:58 37.70907 23.67958 4255 ft 271 kts 102°
2026-05-04 00:58 37.70471 23.70243 3995 ft 260 kts 90°
2026-05-04 00:58 37.70655 23.72382 3953 ft 234 kts 68°
2026-05-04 00:58 37.71401 23.74101 3951 ft 213 kts 46°
2026-05-04 00:59 37.72395 23.75370 3970 ft 198 kts 37°
2026-05-04 00:59 37.73458 23.76379 3984 ft 190 kts 32°
2026-05-04 00:59 37.74518 23.77376 4005 ft 190 kts 33°
2026-05-04 00:59 37.75577 23.78379 4044 ft 190 kts 33°
2026-05-04 01:00 37.76635 23.79383 4025 ft 189 kts 33°
2026-05-04 01:00 37.77690 23.80383 3920 ft 190 kts 33°
2026-05-04 01:00 37.78732 23.81372 3722 ft 190 kts 33°
2026-05-04 01:00 37.79773 23.82361 3481 ft 184 kts 33°
2026-05-04 01:01 37.80769 23.83308 3230 ft 175 kts 33°
2026-05-04 01:01 37.81714 23.84205 2991 ft 163 kts 33°
2026-05-04 01:01 37.82579 23.85028 2811 ft 150 kts 33°
2026-05-04 01:01 37.83411 23.85819 2632 ft 149 kts 33°
2026-05-04 01:02 37.84239 23.86605 2422 ft 149 kts 33°
2026-05-04 01:02 37.85069 23.87393 2201 ft 150 kts 33°
2026-05-04 01:02 37.85872 23.88163 1937 ft 136 kts 34°
2026-05-04 01:02 37.86612 23.88884 1673 ft 134 kts 33°
2026-05-04 01:03 37.87358 23.89595 1616 ft 135 kts 32°
2026-05-04 01:03 37.88125 23.90271 1407 ft 134 kts 32°
2026-05-04 01:03 37.88865 23.90992 1250 ft 135 kts 35°
2026-05-04 01:03 37.89613 23.91716 1058 ft 136 kts 34°
2026-05-04 01:04 37.90365 23.92446 900 ft 137 kts 34°
2026-05-04 01:04 37.91128 23.93172 682 ft 137 kts 33°
2026-05-04 01:04 37.91893 23.93892 488 ft 138 kts 33°
2026-05-04 01:04 37.92666 23.94618 345 ft 138 kts 34°
2026-05-04 01:05 37.93391 23.95300 292 ft 112 kts 36°
2026-05-04 01:05 37.93836 23.95733 282 ft 65 kts 37°
2026-05-04 01:05 37.94109 23.95979 281 ft 24 kts 23°
2026-05-04 01:05 37.94257 23.96020 281 ft 16 kts
2026-05-04 01:06 37.94332 23.95969 280 ft 14 kts 260°
2026-05-04 01:06 37.94288 23.95892 280 ft 10 kts 224°
2026-05-04 01:06 37.94230 23.95827 284 ft 12 kts 220°
2026-05-04 01:06 37.94158 23.95752 285 ft 14 kts 219°
2026-05-04 01:07 37.94073 23.95673 282 ft 15 kts 214°
2026-05-04 01:07 37.93983 23.95594 285 ft 16 kts 214°
2026-05-04 01:07 37.93886 23.95508 284 ft 17 kts 215°
2026-05-04 01:07 37.93818 23.95448 287 ft 10 kts 217°
2026-05-04 01:08 37.93759 23.95390 287 ft 12 kts 218°
2026-05-04 01:08 37.93689 23.95320 286 ft 10 kts 219°
2026-05-04 01:08 37.93654 23.95279 290 ft 7 kts 241°
2026-05-04 01:08 37.93656 23.95212 287 ft 9 kts 301°
2026-05-04 01:09 37.93694 23.95145 287 ft 7 kts 306°
2026-05-04 01:09 37.93709 23.95081 287 ft 9 kts 250°
2026-05-04 01:09 37.93657 23.95021 289 ft 11 kts 215°
2026-05-04 01:09 37.93608 23.94977 288 ft 7 kts 215°
2026-05-04 01:10 37.93584 23.94933 289 ft 7 kts 284°
2026-05-04 01:10 37.93586 23.94927 289 ft 0 kts 311°
2026-05-04 01:10 37.93595 23.94910 289 ft 4 kts 299°
2026-05-04 01:10 37.93608 23.94869 289 ft 4 kts 281°
2026-05-04 01:11 37.93613 23.94844 289 ft 0 kts 304°